User: anonymous   Login
Location: Chevoux
(46.3801°N, 4.9476°E)
Time: 08:47:28
(UTC+00:00)
Language:

SJ 16-02 - Orbit

View from above orbital plane
View from above orbital plane
View from above satellite
View from above satellite

Ground track
Ground track

The orbit data is extracted from the following two-line orbital elements,

1 41634U 16043A   21102.79297313  .00000065  00000-0  10650-4 0  9996
2 41634  75.0019 232.9752 0008223 292.5219  67.5094 14.85784917259693
Epoch (UTC): 12 April 2021 19:01:52
Eccentricity: 0.0008223
inclination: 75.0019°
perigee height: 605 km
apogee height: 617 km
right ascension of ascending node: 232.9752°
argument of perigee: 292.5219°
revolutions per day: 14.85784917
mean anomaly at epoch: 67.5094°
orbit number at epoch: 25969

The dashed part of the orbit path shows where the satellite is in the earth's shadow,  

DLR